Regional Weather Roundup
Issued by NWS

Home | Current Version | Previous Version | Text Only | Print | Product List | Glossary On
Versions: 1 2 3 4 5 6 7 8 9 10 11 12 13 14 15 16 17 18 19 20 21 22 23 24 25 26 27 28 29 30 31 32 33 34 35 36 37 38 39 40 41 42 43 44 45 46 47 48 49 50
000
ASUS42 KTBW 271810
RWRFL
FLORIDA REGIONAL WEATHER ROUNDUP
NATIONAL WEATHER SERVICE TAMPA BAY RUSKIN FL
200 PM EDT WED AUG 27 2014

NOTE: "FAIR" INDICATES FEW OR NO CLOUDS BELOW 12,000 FEET WITH NO
SIGNIFICANT WEATHER AND/OR OBSTRUCTIONS TO VISIBILITY.


FLZ001>010-012>015-112-114-115-271900-
PANHANDLE FLORIDA

CITY           SKY/WX    TMP DP  RH WIND       PRES   REMARKS
PENSACOLA      FAIR      86  69  56 SE12      30.04F
PENSACOLA NAS  PTSUNNY   88  73  61 SE13G18   30.04F HX  95
MILTON NAS     PTSUNNY   90  67  46 VRB3      30.04F
CRESTVIEW      MOSUNNY   90  63  40 VRB5      30.05F
DUKE FIELD     FAIR      91  68  45 VRB2      30.04F HX  95
VALPARAISO     FAIR      88  67  49 S10       30.03F
TRI COUNTY     FAIR      89  67  47 VRB3      30.04F
PANAMA CITY    FAIR      91  65  41 NW7       30.01F
TYNDALL AFB    SUNNY     90  69  49 SE7       30.03F HX  95
APALACHICOLA   SUNNY     88  65  46 E13G20    30.02F

STATION/POSITION SKY/WX   TEMP    WIND        PRES    WAVE   SWELL
                          AIR SEA DIR/SP/G            HT/PER HT/PER
                          (F)     (DEG/KT/KT) (MB)    (FT/S) (FT/S)
30.1N   87.6W              84 85  100/ 14/ 16 1017.1F   4/ 6   2/ 7
29.2N   88.2W              85 86   80/ 14/ 16 1016.5F
28.8N   86.0W              84 87   80/ 14/ 17 1016.1F   5/ 6
PANAMA CITY BEAC           89 85  250/  2/  9 1016.6F
CAPE SAN BLAS    NOT AVBL
TOWER C                    81      60/ 12/ 13 1016.8F
28.5N   84.5W              83 86   70/ 12/ 16 1015.9F   3/ 5

$$
FLZ011-016>038-118-127-128-134-139-239-271900-
NORTH FLORIDA

CITY           SKY/WX    TMP DP  RH WIND       PRES   REMARKS
MARIANNA       MOSUNNY   91  66  43 N10       30.03F
TALLAHASSEE    PTSUNNY   91  63  39 VRB5      30.03F
PERRY          SUNNY     88  59  37 E9        30.02F
CROSS CITY       N/A     91  64  40 NE9       30.01F
LAKE CITY      FAIR      86  63  45 NE10      30.02S
GAINESVILLE    SUNNY     88  66  48 N5        30.01F
MAYPORT NAS    MOSUNNY   86  66  51 NE14      30.02S
JACKSONVILLE   MOSUNNY   85  64  49 NE8       30.00F
JAX NAS        MOSUNNY   89  68  49 NE10      30.01F
JAX CRAIG      SUNNY     85  67  54 NE10      30.01F
JAX CECIL      MOSUNNY   86  64  48 N6        30.00F
FERNANDINA BEA FAIR      84  64  51 N10G20    30.00F
ST AUGUSTINE   MOSUNNY   85  71  63 NE15      30.01F

STATION/POSITION SKY/WX   TEMP    WIND        PRES    WAVE   SWELL
                          AIR SEA DIR/SP/G            HT/PER HT/PER
                          (F)     (DEG/KT/KT) (MB)    (FT/S) (FT/S)
SHELL POINT                84     140/  5/  8   N/A
KEATON BEACH               86      30/  7/ 11 1016.5F
CEDAR KEY                  84      70/  8/  9 1016.6F
FERNANDINA                 82 83   30/  8/ 13 1016.1S
30.7N   81.3W                 83                N/A     5/ 9   2/11
MAYPORT                    80 83   20/ 13/ 16   N/A
31.4N   80.9W              79 84  360/ 12/ 16 1016.6F   4/ 5   3/ 8
ST AUGUSTINE               80      20/ 16/ 17 1016.7F

$$
FLZ040-043>046-052-053-057-058-063-144-271900-
INTERIOR CENTRAL FLORIDA

CITY           SKY/WX    TMP DP  RH WIND       PRES   REMARKS
OCALA          MOSUNNY   90  63  40 N9        30.00F
LEESBURG       PTSUNNY   90  67  46 N6        30.00F
SANFORD        PTSUNNY   89  69  51 NE10      29.98F
ORLANDO EXEC   MOSUNNY   93  68  43 N13G22    29.98F HX  97
ORLANDO INTL   PTSUNNY   89  70  53 NE9       29.97F
KISSIMMEE      PTSUNNY   90  72  55 NE9       29.98F HX  96
WINTER HAVEN   MOSUNNY   90  69  50 N7        29.98F
BARTOW         PTSUNNY   88  68  51 NE7       29.98F
OKEECHOBEE     SUNNY     90  70  51 MISG      29.96F HX  95

$$
FLZ041-047-054-059-064-141-147-271900-
EAST CENTRAL FLORIDA

CITY           SKY/WX    TMP DP  RH WIND       PRES   REMARKS
ORMOND BEACH   MOSUNNY   84  72  65 NE15G21   30.00F
DAYTONA BEACH  PTSUNNY   88  70  55 NE14      30.00F
DELAND         PTCLDY    86  70  58 NE8       30.00F
NEW SMYRNA BEA PTSUNNY   86  72  62 MISG      30.00F
JFK SPACE CTR  MOSUNNY   86  72  62 NE14G22   29.98F
TITUSVILLE     MOSUNNY   88  73  62 N17       29.98F HX  96
CAPE CANAVERAL SUNNY     88  71  57 N8        29.97F
PATRICK AFB    SUNNY     87  75  66 N12       29.98S HX  97
MELBOURNE      MOSUNNY   88  71  57 NE12      29.97F
VERO BEACH     MOSUNNY   87  72  60 N10       29.96F
FT PIERCE      SUNNY     88  70  55 NE8       29.96F
STUART         MOSUNNY   86  73  66 NE9       29.97F

STATION/POSITION SKY/WX   TEMP    WIND        PRES    WAVE   SWELL
                          AIR SEA DIR/SP/G            HT/PER HT/PER
                          (F)     (DEG/KT/KT) (MB)    (FT/S) (FT/S)
28.5N   80.2W              82 83  340/ 10/ 10 1015.3F
28.9N   78.5W              83 85  330/  6/  8 1014.5F   8/ 9   8/ 9
TRIDENT PIER               84 83  350/  6/ 10 1014.7F
28.4N   80.5W                 83                N/A     3/10   2/11
27.6N   80.2W                 83                N/A     5/10   2/11

$$
FLZ050-056-061-142-242-148-248-149-249-151-251-155-255-
160-260-271900-
WEST CENTRAL FLORIDA

CITY           SKY/WX    TMP DP  RH WIND       PRES   REMARKS
CRYSTAL RIVER  FAIR      91  63  38 NE5       29.98F
INVERNESS      FAIR      90  46  22 NE5       29.99F
BROOKSVILLE    MOSUNNY   89  67  47 NE7       29.99F
ZEPHYRHILLS    FAIR      90  64  43 E3        29.98F
CLEARWATER     MOSUNNY   89  70  53 VRB3      29.97F
TAMPA INTL     MOSUNNY   90  66  45 VRB6      29.97F
TAMPA EXEC     MOSUNNY   91  66  43 NE8       29.97F
MACDILL AFB    SUNNY     92  73  54 E9        29.97F HX 101
ST PETERSBURG  SUNNY     90  70  51 E5        29.95F HX  95
SARASOTA       MOSUNNY   91  66  43 MISG      29.94F
VENICE           N/A    N/A N/A N/A MISG        N/A

STATION/POSITION SKY/WX   TEMP    WIND        PRES    WAVE   SWELL
                          AIR SEA DIR/SP/G            HT/PER HT/PER
                          (F)     (DEG/KT/KT) (MB)    (FT/S) (FT/S)
CEDAR KEY                  84      70/  8/  9 1016.6F
28.5N   84.5W              83 86   70/ 12/ 16 1015.9F   3/ 5
27.3N   84.3W                 87                N/A     4/ 5
CLEARWATER BEACH           86 86  330/  8/ 10 1014.6F
MIDDLE TAMPA BAY           85      30/ 10/ 12 1015.0F
VENICE                     87 87   40/  6/  8 1013.9F

$$
FLZ066-069-070-075>078-162-262-165-265-271900-
SOUTHWEST FLORIDA AND KEYS

CITY           SKY/WX    TMP DP  RH WIND       PRES   REMARKS
PUNTA GORDA    MOSUNNY   91  66  43 SE9       29.97F
FT MYERS       MOSUNNY   91  64  40 E3        29.94F
SOUTHWEST INTL MOSUNNY   90  64  42 NE5       29.94F
NAPLES         MOSUNNY   90  70  51 VRB3      29.93F HX  95
MARCO ISLAND   PTCLDY    91  70  49 E5        29.94F HX  97
MARATHON       MOSUNNY   91  75  59 E10       29.93S HX 101
KEY WEST NAS   PTSUNNY   90  78  68 E16       29.93S HX 104
KEY WEST INTL  PTSUNNY   88  78  72 E15       29.93F HX 101

STATION/POSITION SKY/WX   TEMP    WIND        PRES    WAVE   SWELL
                          AIR SEA DIR/SP/G            HT/PER HT/PER
                          (F)     (DEG/KT/KT) (MB)    (FT/S) (FT/S)
VENICE                     87 87   40/  6/  8 1013.9F
NAPLES                     88      70/  3/  6 1014.3F
DRY TORTUGAS               85      80/ 16/ 19 1013.1F
NW FL BAY                  86     110/ 13/ 15 1014.0R
SAND KEY                   86     120/ 14/ 16 1013.4S
SOMBRERO KEY               87     100/ 15/ 16 1014.1F
LONG KEY                   86 86   90/ 12/ 13 1014.7R
MOLASSES REEF              84 88  100/ 15/ 18 1013.8F

$$
FLZ067-068-071>074-168-172>174-271900-
SOUTHEAST FLORIDA

CITY           SKY/WX    TMP DP  RH WIND       PRES   REMARKS
W PALM BEACH   MOSUNNY   90  73  57 E12       29.94F HX  98
FT LAUDER-EXEC MOSUNNY   91  73  55 NE10      29.94F HX  99
FT LAUDERDALE  MOSUNNY   90  70  51 NE13G20   29.94F HX  95
POMPANO BEACH  SUNNY     90  73  57 E14       29.95S HX  98
PEMBROKE PINES PTSUNNY   91  70  49 E9        29.96S HX  96
OPA LOCKA      MOSUNNY   91  71  51 E12G18    29.95S HX  97
MIAMI          MOSUNNY   89  71  55 E9G17     29.95S HX  95
WEST KENDALL   MOSUNNY   91  73  55 E14       29.94S HX  99
HOMESTEAD      SUNNY     89  74  60 NE12      29.94F HX  97

STATION/POSITION SKY/WX   TEMP    WIND        PRES    WAVE   SWELL
                          AIR SEA DIR/SP/G            HT/PER HT/PER
                          (F)     (DEG/KT/KT) (MB)    (FT/S) (FT/S)
PORT EVERGLADES            85      50/ 10/ 12 1014.1
VIRGINIA KEY               85 86   70/  9/ 12   N/A
LAKE WORTH                 85 87   40/ 12/ 13 1014.0S
FOWEY ROCKS                84 87   50/  9/ 10 1014.5F
SETTLEMENT POINT           83      70/  2/  2 1015.1S

$$




USA.gov is the U.S. government's official web portal to all federal, state and local government web resources and services.